Regional Weather Roundup
Issued by NWS

Home | Current Version | Previous Version | Graphics & Text | Print | Product List | Glossary On
Versions: 1 2 3 4 5 6 7 8 9 10 11 12 13 14 15 16 17 18 19 20 21 22 23 24 25 26 27 28 29 30 31 32 33 34 35 36 37 38 39 40 41 42 43 44 45 46 47 48 49 50
000
ASUS43 KLSX 281707
RWRMO

WEATHER SUMMARY FOR MISSOURI
NATIONAL WEATHER SERVICE SPRINGFIELD MO
1100 AM CST SUN DEC 28 2014

NOTE: "FAIR" INDICATES FEW OR NO CLOUDS BELOW 12,000 FEET WITH NO
       SIGNIFICANT WEATHER AND/OR OBSTRUCTIONS TO VISIBILITY.
       CURRENT SKY AND/OR WEATHER CONDITIONS ARE NOT AVAILABLE FOR
       CHILLICOTHE AND FARMINGTON.

MOZ001>031-035>038-043-044-053-054-281800-
...NORTHERN AND WESTERN MISSOURI...

CITY           SKY/WX    TMP DP  RH WIND       PRES   REMARKS
KANSAS CTY INT MOSUNNY   31  23  72 SW10      30.22F WCI  22
KANSAS C DTWN  SUNNY     33  21  61 SW6       30.25F WCI  28
LEE`S SUMMIT   SUNNY     31  22  69 SW7       30.24F WCI  24
ST JOSEPH      SUNNY     29  23  78 SW9       30.23S WCI  20
CHILLICOTHE      N/A     30  22  72 S8        30.25F WCI  22
KIRKSVILLE     SUNNY     30  20  66 SW8       30.22F WCI  22

$$
MOZ066>068-077>081-088>096-101>105-281800-
...SOUTHWEST MISSOURI...

CITY           SKY/WX    TMP DP  RH WIND       PRES   REMARKS
SPRINGFIELD    CLOUDY    29  23  78 N3        30.23F
JOPLIN         MOSUNNY   28  24  85 CALM      30.27F

$$
MOZ032>034-039>042-045>050-055>058-069>072-281800-
...CENTRAL MISSOURI...

CITY           SKY/WX    TMP DP  RH WIND       PRES   REMARKS
COLUMBIA       PTSUNNY   29  22  75 W5        30.25F WCI  24
JEFFERSON CITY PTSUNNY   31  23  72 W3        30.27F
ROLLA          CLOUDY    29  23  78 CALM      30.22S
SEDALIA        MOSUNNY   29  23  78 SW6       30.26F WCI  23
WHITEMAN AFB   SUNNY     19  18  93 SW3       30.26R
WARRENSBURG    SUNNY     32  23  69 SW5       30.25F WCI  27
OSAGE BEACH    CLOUDY    28  21  74 SW5       30.25F WCI  23

$$
MOZ051-052-059>065-281800-
...EAST CENTRAL MISSOURI...

CITY           SKY/WX    TMP DP  RH WIND       PRES   REMARKS
ST LOUIS INTL  CLOUDY    34  25  69 CALM      30.25S
SPIRIT OF STL  CLOUDY    32  24  72 N3        30.25F
ST CHARLES     CLOUDY    32  25  75 NW6       30.25F WCI  26

$$
MOZ072>076-082>087-097>100-106>115-281800-
...SOUTH CENTRAL AND SOUTHEAST MISSOURI...

CITY           SKY/WX    TMP DP  RH WIND       PRES   REMARKS
CAPE GIRARDEAU CLOUDY    35  30  82 N9        30.25R WCI  28
POPLAR BLUFF   CLOUDY    36  28  73 N7        30.25S
WEST PLAINS    CLOUDY    30  23  75 NW5       30.22F WCI  25

$$



USA.gov is the U.S. government's official web portal to all federal, state and local government web resources and services.